1,427,657개(31812/71383페이지)
LECTURE
번호 제목 글쓴이 조회 날짜
791437 Biocides are commonly used in medication HarderSalinas6595 6 2022.02.14 20:37
791436 How To Learn From Your Poker Failures MercerMeincke5943 5 2022.02.14 20:37
791435 Finest Personal Loan Charges For Decembe CharlesWomble5612 263 2022.02.14 20:37
791434 Szkoła Pierwsza Im. św. Jana Pawła II W AppelDrake8641 5 2022.02.14 20:37
791433 Dobre Wypracowania - Ebook Książka SigmonRouse1203 4 2022.02.14 20:37
791432 精彩小说 大周仙吏 起點- 第34章 重回故地 力不勝任 深山幽谷 展示-p2 사진 HumphreyWaters1612 5 2022.02.14 20:37
791431 How A Single Woman Ought To Think About StarrGarcia0126 4 2022.02.14 20:36
791430 Details on the gutter washing services m EbbesenDogan1719 7 2022.02.14 20:36
791429 Find out How To Use The MBTI Test As A J SternBarbour6649 101 2022.02.14 20:36
791428 Poker Image And Winning Art LevesqueBuck8626 4 2022.02.14 20:36
791427 Last Frontier Heliskiing, Bc HicksHauser4073 5 2022.02.14 20:36
791426 What It is actually Like To Be actuall SellersChristiansen6292 246 2022.02.14 20:36
791425 I Am A __ MBTI Type: Which One Are You? HirschCline1931 100 2022.02.14 20:35
791424 Poker Tools Are Useful For Anyone To Han LundbergBean7611 6 2022.02.14 20:35
791423 The increased temperatures fracturing fl HeathHenry6305 4 2022.02.14 20:35
791422 Mod Your Psp And Download Psp Games Now! RosarioPatterson3350 7 2022.02.14 20:35
791421 Advice That Will Help You Raise A Happy HarperWright4694 6 2022.02.14 20:35
791420 好看的小说 大周仙吏- 第144章 戏耍 若登高必自卑 斂發謹飭 推薦-p3 사진 ClappElliott1253 7 2022.02.14 20:35
791419 Check out Here For Excellent Guidelines DrewOtto2187 7 2022.02.14 20:35
791418 Olga TOKARCZUK - Polscy Kompozytory I Ba 사진 HuffBishop1615 5 2022.02.14 20:35